Home > Weather > Lafayette > Past weeks

Flag for USA Weather for the Past 2 Weeks in Lafayette, Louisiana, USA

Now
74 °F

Thundershowers. Overcast.


Feels Like: 71 °F
Forecast: 73 / 81 °F
Wind: 5 mph from South

Location: Lafayette Regional Airport

Current Time: May 1, 2016 at 3:58:39 AM

Latest Report: May 1, 2016 at 3:00 AM


Visibility: 8 mi

Pressure: 29.82 "Hg

Humidity: 94%

Dew Point: 72 °F

Location of LafayetteLocation

Historic Weather in Lafayette — Graph

°F

Lafayette Temperature Yesterday

Maximum temperature yesterday: 80 °F (at 3:53 PM)
Minimum temperature yesterday: 69 °F (at 12:53 PM)
Average temperature yesterday: 76 °F

High & Low Weather Summary for the Past Weeks

 TemperatureHumidityPressure
High85 °F (Apr 26, 1:53 PM)97% (Apr 20, 5:57 PM)30.17 "Hg (Apr 20, 5:57 PM)
Low58 °F (Apr 24, 5:53 AM)33% (Apr 23, 2:53 PM)29.69 "Hg (Apr 27, 3:53 PM)
Average73 °F78%29.95 "Hg
* Reported Apr 16 1:53 AM — May 1 1:53 AM, Lafayette, Weather by CustomWeather, © 2016

Note: Actual official high and low records may vary slightly from our data, if they occured in-between our weather recording intervals... More about our weather records

Advertising

Lafayette Weather History for the Previous 24 Hours

Scroll right to see more
 ConditionsComfort  
Time TempWeatherWind HumidityBarometerVisibility
1:53 AM
Sun, May 1
74 °FOvercast.6 mph91%29.83 "Hg9 mi
12:53 AM74 °FStrong thunderstorms. Fog.8 mph91%29.85 "Hg3 mi
11:53 PM
Sat, Apr 30
75 °FMostly cloudy.6 mph85%29.85 "Hg10 mi
10:53 PM75 °FPartly cloudy.6 mph85%29.84 "Hg10 mi
9:53 PM75 °FMostly cloudy.8 mph82%29.83 "Hg10 mi
8:53 PM75 °FOvercast.6 mph85%29.81 "Hg10 mi
7:53 PM75 °FOvercast.8 mph85%29.79 "Hg10 mi
6:53 PM77 °FBroken clouds.9 mph82%29.77 "Hg10 mi
5:53 PM78 °FScattered clouds.7 mph76%29.75 "Hg10 mi
5:02 PM78 °FBroken clouds.9 mph79%29.75 "Hg10 mi
4:53 PM78 °FScattered clouds.9 mph79%29.74 "Hg10 mi
3:53 PM80 °FSunny.6 mph71%29.72 "Hg10 mi
2:53 PM79 °FSunny.9 mph74%29.73 "Hg10 mi
1:53 PM71 °FSunny.6 mph84%29.72 "Hg10 mi
12:53 PM69 °FLight rain. Partly sunny.7 mph96%29.76 "Hg10 mi
12:00 PM70 °FStrong thunderstorms. Fog.5 mph93%29.84 "Hg1 mi
10:53 AM77 °FThundershowers. Overcast.7 mph85%29.77 "Hg6 mi
9:53 AM78 °FMostly cloudy.9 mph82%29.78 "Hg10 mi
8:53 AM78 °FPartly sunny.8 mph82%29.73 "Hg10 mi
8:00 AM77 °FPassing clouds.3 mph82%29.75 "Hg10 mi
7:00 AM76 °FPassing clouds.9 mph85%29.74 "Hg10 mi
5:53 AM76 °FPassing clouds.10 mph88%29.70 "Hg10 mi
4:53 AM76 °FPassing clouds.12 mph85%29.71 "Hg10 mi
3:53 AM76 °FPassing clouds.12 mph88%29.72 "Hg10 mi
Weather by CustomWeather, © 2016

See weather overviewHow to use our weather pages